KOREASAT 5 (MUGUNGWHA 5)

Last updated on Tue Oct 15 2024 00:02:38 GMT+0000 (Coordinated Universal Time)

1 29349U 06034A 24288.52341212 -.00000360 00000+0 00000+0 0 9992 2 29349 0.1944 94.0669 0001777 139.6987 91.3065 1.00270922 35191
UTC large
Height (km)
Speed (km/s)
/
Latitude / Longitude
Inclination (degrees)
Orbital Period (minutes)
Azimuth
Elevation
Range (km)
Doppler Factor

Next 0 passes for location: London (51.5072 / 0.1276)

Sorry there are no passes over London.